Hurricane Symbol View the latest observations near Atlantic Tropical Storm Alberto.

Station DULM5 - 9099064 - Duluth, MN Image indicating link to RSS feed of recent meteorological observations for station DULM5


Conditions at DULM5 as of
(2:30 am CDT)
0730 GMT on 06/20/2024:
     

Click on the graph icon in the table below to see a time series plot of the last five days of that observation.

5-day plot - Wind Direction Wind Direction (WDIR):ENE ( 60 deg true )
5-day plot - Wind Speed Wind Speed (WSPD):1.0 m/s
5-day plot - Wind Gust Wind Gust (GST):1.5 m/s
5-day plot - Atmospheric Pressure Atmospheric Pressure (PRES):1026.0 mb
5-day plot - Air Temperature Air Temperature (ATMP): 13.8 °C
5-day plot - Water Temperature Water Temperature (WTMP): 15.6 °C
5-day plot - Dew Point Dew Point (DEWP): 11.4 °C
5-day plot - Wind Speed at 10 Meters Wind Speed at 10 meters (WSPD10M): 1 m/s
5-day plot - Wind Speed at 20 Meters Wind Speed at 20 meters (WSPD20M): 1 m/s
5-day plot -  Wind Speed, Wind Gust and Atmospheric Pressure Combined plot of Wind Speed, Gust, and Air Pressure
NOS Water Level Observation Network Water Level
Previous observations
TIME
(CDT)
5-day plot - Wind Direction
WDIR
 
5-day plot - Wind Speed
WSPD
m/s
5-day plot - Wind Gust
GST
m/s
5-day plot - Wave Height
WVHT
m
5-day plot - Dominant Wave Period
DPD
sec
5-day plot - Average Wave Period
APD
sec
5-day plot - Mean Wave Direction
MWD
 
5-day plot - Atmospheric Pressure
PRES
mb
5-day plot - Pressure Tendency
PTDY
mb
5-day plot - Air Temperature
ATMP
°C
5-day plot - Water Temperature
WTMP
°C
5-day plot - Dew Point
DEWP
°C
5-day plot - Salinity
SAL
psu
5-day plot - Visibility
VIS
km
5-day plot - Tide (above MLLW)
TIDE
m
2024-06-20 02:24 am NE 0.5 1.0----1026.2- 13.9 15.6 11.5---
2024-06-20 02:18 am E 1.0 1.0----1026.1- 14.0 15.6 11.6---
2024-06-20 02:12 am E 1.0 1.0----1026.1- 14.2 15.6 11.7---
2024-06-20 02:06 amNNE 0.5 1.0----1026.0- 14.3 15.6 11.4---
2024-06-20 02:00 am- 0.0 1.0----1025.9 +0.6 14.5 15.6 11.4---
2024-06-20 01:54 am E 1.0 2.1----1025.7- 14.6 15.6 11.1---
2024-06-20 01:48 amESE 0.5 1.0----1025.6- 14.7 15.6 11.1---
2024-06-20 01:42 am S 0.5 1.0----1025.8- 14.6 15.6 11.0---
2024-06-20 01:36 am- 0.0 0.5----1025.9- 14.5 15.6 10.8---
2024-06-20 01:30 am- 0.0 0.5----1025.7- 14.6 15.6 10.8---
2024-06-20 01:24 am- 0.0 0.5----1025.7- 14.5 15.6 10.6---
2024-06-20 01:18 am- 0.0 0.5----1025.6- 14.6 15.6 10.5---
2024-06-20 01:12 am- 0.0 0.5----1025.6- 14.6 15.6 10.4---
2024-06-20 01:06 am NW 0.5 1.0----1025.6- 14.5 15.6 10.6---
2024-06-20 01:00 am N 0.5 1.5----1025.6 +0.4 14.4 15.6 10.7---
2024-06-20 12:54 am NE 1.5 1.5----1025.4- 14.6 15.6 10.8---
2024-06-20 12:48 am N 0.5 1.0----1025.6- 15.0 15.6 11.0---
2024-06-20 12:42 am- 0.0 0.0----1025.7- 15.0 15.6 11.2---
2024-06-20 12:36 am- 0.0 0.0----1025.6- 15.2 15.6 11.2---
2024-06-20 12:30 am- 0.0 0.0----1025.6- 15.1 15.6 11.2---
2024-06-20 12:24 am- 0.0 0.0----1025.6- 14.6 15.6 10.8---
2024-06-20 12:18 am- 0.0 0.0----1025.7- 14.6 15.6 10.6---
2024-06-20 12:12 am- 0.0 0.0----1025.7- 14.7 15.6 10.8---
2024-06-20 12:06 am- 0.0 0.5----1025.7- 14.8 15.6 10.5---
2024-06-20 12:00 am- 0.0 1.0----1025.8 +1.5 14.8 15.6 10.5---
2024-06-19 11:54 pm E 1.0 1.5----1025.7- 15.0 15.6 10.6---
2024-06-19 11:48 pmENE 0.5 1.0----1025.6- 15.1 15.6 10.6---
2024-06-19 11:42 pmENE 0.5 1.0----1025.6- 15.3 15.6 11.0---
2024-06-19 11:36 pm NE 0.5 1.0----1025.5- 15.5 15.6 10.6---
2024-06-19 11:30 pm NE 1.0 1.5----1025.5- 15.6 15.6 10.2---
2024-06-19 11:24 pm NE 0.5 0.5----1025.6- 15.9 15.6 10.3---
2024-06-19 11:18 pm- 0.0 0.5----1025.6- 16.1 15.6 10.5---
2024-06-19 11:12 pm- 0.0 0.0----1025.4- 16.4 15.6 10.8---
2024-06-19 11:06 pm- 0.0 0.0----1025.4- 16.4 15.6 11.3---
2024-06-19 11:00 pm- 0.0 0.5----1025.3 +1.5 16.5 15.6 11.8---
2024-06-19 10:54 pm- 0.0 0.5----1025.4- 16.3 15.6 10.7---
2024-06-19 10:48 pm- 0.0 0.5----1025.5- 16.3 15.7 10.3---
2024-06-19 10:42 pm- 0.0 0.5----1025.4- 16.3 15.7 10.0---
2024-06-19 10:36 pm- 0.0 0.5----1025.5- 16.3 15.7 10.0---
2024-06-19 10:30 pm- 0.0 1.0----1025.4- 16.3 15.6 9.9---
2024-06-19 10:24 pm N 0.5 1.0----1025.4- 16.5 15.7 9.9---
2024-06-19 10:18 pmNNE 1.0 1.5----1025.3- 16.5 15.7 9.8---
2024-06-19 10:12 pm NE 1.5 1.5----1025.2- 16.2 15.7 9.6---
2024-06-19 10:06 pmNNE 0.5 1.0----1025.3- 16.1 15.7 9.5---
2024-06-19 10:00 pm- 0.0 1.0----1025.2 +1.7 16.0 15.6 9.9---
2024-06-19 09:54 pmNNE 1.0 1.5----1025.1- 16.1 15.6 10.0---
2024-06-19 09:48 pm NE 1.5 1.5----1024.9- 16.2 15.7 10.3---
2024-06-19 09:42 pm E 0.5 0.5----1024.8- 16.9 15.7 10.2---
2024-06-19 09:36 pm- 0.0 0.5----1024.8- 17.1 15.7 10.0---
2024-06-19 09:30 pm- 0.0 0.5----1024.7- 17.2 15.7 10.1---
2024-06-19 09:24 pmESE 0.5 1.0----1024.7- 17.1 15.7 9.9---
2024-06-19 09:18 pm E 1.0 1.5----1024.6- 16.8 15.7 10.3---
2024-06-19 09:12 pm E 1.0 1.5----1024.4- 17.1 15.7 10.0---
2024-06-19 09:06 pm NE 1.0 1.5----1024.3- 17.6 15.7 10.0---
2024-06-19 09:00 pm NE 1.0 1.5----1024.3 +0.8 18.3 15.7 9.4---
2024-06-19 08:54 pm NE 1.5 2.1----1024.2- 18.7 15.7 8.8---
2024-06-19 08:48 pm NE 1.5 2.1----1024.1- 19.0 15.7 8.9---
2024-06-19 08:42 pmNNE 1.0 2.6----1024.0- 20.5 15.6 8.9---
2024-06-19 08:36 pm N 1.5 2.6----1024.0- 20.7 15.6 8.2---
2024-06-19 08:30 pm N 1.5 2.6----1024.0- 21.0 15.6 8.6---
2024-06-19 08:24 pmNNW 1.0 2.6----1024.0- 21.0 15.6 8.7---
2024-06-19 08:18 pm N 1.5 2.6----1023.9- 21.2 15.6 8.6---
2024-06-19 08:12 pm N 1.0 2.6----1023.9- 21.1 15.6 8.4---
2024-06-19 08:06 pm N 2.1 3.1----1023.8- 21.1 15.6 8.4---
2024-06-19 08:00 pm N 2.1 3.1----1023.8 +0.0 21.4 15.6 8.1---
2024-06-19 07:54 pm N 1.5 3.6----1023.8- 21.8 15.6 8.3---
2024-06-19 07:48 pmNNW 2.1 3.1----1023.8- 22.0 15.6 8.1---
2024-06-19 07:42 pmNNW 2.1 4.1----1023.7- 22.1 15.6 8.0---
2024-06-19 07:36 pmNNW 2.1 4.1----1023.7- 22.1 15.6 8.1---
2024-06-19 07:30 pmNNW 2.1 4.6----1023.6- 21.8 15.6 8.1---
2024-06-19 07:24 pm NW 3.1 4.6----1023.5- 21.7 15.6 8.3---
2024-06-19 07:18 pm NW 3.1 4.6----1023.5- 21.9 15.6 8.7---
2024-06-19 07:12 pmWNW 1.5 4.1----1023.4- 21.9 15.6 9.3---
2024-06-19 07:06 pm NW 2.6 3.6----1023.5- 21.9 15.6 8.6---
2024-06-19 07:00 pm N 1.5 2.6----1023.5 +0.3 21.9 15.6 9.0---
2024-06-19 06:54 pmNNW 2.1 3.1----1023.4- 22.0 15.6 9.0---
2024-06-19 06:48 pm N 1.0 4.1----1023.4- 22.1 15.6 9.3---
2024-06-19 06:42 pmWNW 2.6 4.1----1023.4- 21.8 15.6 8.6---
2024-06-19 06:36 pm NW 2.6 5.1----1023.4- 21.9 15.6 8.8---
2024-06-19 06:30 pmWNW 4.1 5.7----1023.4- 21.5 15.6 9.0---
2024-06-19 06:24 pmWNW 4.6 5.7----1023.3- 21.7 15.6 9.2---
2024-06-19 06:18 pmWNW 4.1 6.2----1023.3- 21.8 15.6 8.9---
2024-06-19 06:12 pmNNW 2.1 6.2----1023.3- 22.2 15.6 8.9---
2024-06-19 06:06 pmWNW 1.5 3.6----1023.4- 22.1 15.6 9.2---
2024-06-19 06:00 pm NW 2.6 5.1----1023.5 +0.6 22.1 15.6 8.7---
2024-06-19 05:54 pm N 2.6 4.6----1023.4- 22.0 15.6 8.5---
2024-06-19 05:48 pm NW 4.6 5.7----1023.5-- 15.6----
2024-06-19 05:42 pm W 0.5 1.5----1023.5-- 15.6----
2024-06-19 05:36 pm N 1.0 6.2----1023.5-- 15.6----
2024-06-19 05:30 pm W 5.1 6.2----1023.5- 21.1 15.6 9.0---
2024-06-19 05:24 pmWNW 1.5 4.6----1023.5- 21.6 15.6 8.2---
2024-06-19 05:18 pm W 2.6 4.1----1023.7- 21.2- 8.9---
2024-06-19 05:12 pmWNW 2.6 4.1----1023.6- 20.7- 8.5---
2024-06-19 05:06 pmWNW 3.6 5.1----1023.6- 20.5- 8.1---
2024-06-19 05:00 pm W 4.6 5.7----1023.6 +1.1 20.5 15.6 8.4---
2024-06-19 04:54 pm W 4.6 7.2----1023.6- 20.5 15.6 8.3---
2024-06-19 04:48 pmWNW 5.7 7.2----1023.5- 20.8 15.6 8.5---
2024-06-19 04:42 pmWNW 4.1 6.7----1023.5- 20.8 15.6 8.9---
2024-06-19 04:36 pm NW 5.7 8.2----1023.4- 20.6 15.6 8.4---
2024-06-19 04:30 pmWNW 4.6 7.7----1023.4- 21.0 15.6 8.7---
2024-06-19 04:24 pmWNW 5.1 7.7----1023.3- 21.1 15.6 9.3---
2024-06-19 04:18 pmWNW 3.6 7.7----1023.3- 21.1 15.6 8.6---
2024-06-19 04:12 pm NW 6.2 8.2----1023.2- 21.0 15.6 8.5---
2024-06-19 04:06 pm W 3.6 7.2----1023.2- 21.4 15.6 9.1---
2024-06-19 04:00 pmWNW 3.6 7.2----1023.2 +1.1 21.3 15.6 8.8---
2024-06-19 03:54 pmWNW 3.6 6.2----1023.1- 21.7 15.6 9.2---
2024-06-19 03:48 pm NW 4.6 7.2----1023.0- 21.8 15.6 8.3---
2024-06-19 03:42 pm NW 3.1 6.7----1023.0- 22.0 15.6 8.4---
2024-06-19 03:36 pm W 2.1 7.2----1022.9- 21.6 15.6 8.9---
2024-06-19 03:30 pm W 4.6 7.2----1023.0- 21.8 15.6 8.8---
2024-06-19 03:24 pm W 4.6 6.2----1022.9- 21.3 15.6 8.7---
2024-06-19 03:18 pmWNW 3.1 6.2----1022.9- 21.6 15.6 8.6---
2024-06-19 03:12 pmWNW 5.7 6.2----1022.9- 21.3 15.6 8.3---
2024-06-19 03:06 pmNNW 2.1 5.1----1022.8- 21.9 15.6 8.9---
2024-06-19 03:00 pmWNW 2.6 4.6----1022.9 +1.5 21.5 15.6 9.3---
2024-06-19 02:54 pmWNW 6.2 7.2----1022.7- 21.0 15.6 8.6---
2024-06-19 02:48 pmWNW 4.6 8.2----1022.7- 20.9 15.7 9.0---
2024-06-19 02:42 pmWNW 4.6 7.2----1022.6- 21.4 15.7 8.6---
2024-06-19 02:36 pm W 2.1 5.7----1022.6- 21.1 15.6 8.7---
2024-06-19 02:30 pmNNW 4.1 8.2----1022.5- 21.0 15.7 8.5---
2024-06-19 02:24 pm NW 4.1 7.2----1022.5- 21.2 15.6 8.4---
2024-06-19 02:18 pm NW 5.1 7.2----1022.6- 20.9 15.6 8.1---
2024-06-19 02:12 pm N 2.6 5.7----1022.5- 21.3 15.6 8.1---
2024-06-19 02:06 pmNNW 3.1 6.7----1022.5- 20.6 15.6 7.9---
2024-06-19 02:00 pm NW 6.7 8.8----1022.5 +2.2 20.5 15.6 7.9---
2024-06-19 01:54 pm NW 5.1 6.7----1022.4- 20.8 15.6 8.9---
2024-06-19 01:48 pm NW 4.6 7.7----1022.2- 20.9 15.6 9.0---
2024-06-19 01:42 pm N 3.1 6.2----1022.2- 21.0 15.6 8.2---
2024-06-19 01:36 pm N 3.6 6.2----1022.3- 20.7 15.6 8.3---
2024-06-19 01:30 pm W 3.1 7.7----1022.4- 20.4 15.6 7.5---
2024-06-19 01:24 pm NW 6.2 8.8----1022.5- 19.8 15.6 7.4---
2024-06-19 01:18 pmWNW 4.1 8.2----1022.3- 20.0 15.6 8.6---
2024-06-19 01:12 pmWNW 5.7 7.2----1022.2- 20.1 15.6 9.2---
2024-06-19 01:06 pm W 4.1 7.7----1022.2- 19.7 15.6 9.1---
2024-06-19 01:00 pm W 4.6 6.7----1022.1 +2.7 19.7 15.6 9.3---
2024-06-19 12:54 pm W 4.1 6.7----1022.1- 19.7 15.6 9.1---
2024-06-19 12:48 pm W 2.6 8.8----1022.0- 19.5 15.6 8.7---
2024-06-19 12:42 pm W 4.6 7.2----1022.1- 19.3 15.6 8.8---
2024-06-19 12:36 pm W 2.6 8.2----1021.9- 19.3 15.5 9.4---
2024-06-19 12:30 pmWNW 5.7 8.8----1021.9- 19.3 15.5 9.4---
2024-06-19 12:24 pm W 5.1 6.7----1021.8- 19.2 15.5 9.2---
2024-06-19 12:18 pmWNW 4.6 9.8----1021.8- 19.5 15.5 9.5---
2024-06-19 12:12 pm NW 4.1 7.2----1021.6- 19.3 15.5 9.3---
2024-06-19 12:06 pmWNW 4.6 7.7----1021.4- 19.1 15.5 9.3---
2024-06-19 12:00 pmWNW 3.6 8.8----1021.4 +3.6 19.0 15.5 9.7---
2024-06-19 11:54 amWSW 5.1 7.2----1021.3- 18.7 15.5 10.0---
2024-06-19 11:48 amWNW 5.7 6.7----1021.2- 18.9 15.5 10.2---
2024-06-19 11:42 am NW 3.6 7.7----1021.0- 18.8 15.5 9.5---
2024-06-19 11:36 am W 6.7 7.7----1021.0- 18.4 15.5 9.7---
2024-06-19 11:30 am W 4.1 7.2----1020.8- 18.2 15.5 10.1---
2024-06-19 11:24 am NW 5.7 8.8----1020.8- 18.5 15.5 9.9---
2024-06-19 11:18 amWNW 6.2 9.3----1020.6- 18.2 15.5 9.9---
2024-06-19 11:12 am NW 6.7 10.3----1020.5- 18.1 15.5 10.2---
2024-06-19 11:06 amWNW 5.7 7.7----1020.4- 17.6 15.5 10.4---
2024-06-19 11:00 amWNW 3.6 7.2----1020.3 +3.9 18.1 15.5 10.6---
2024-06-19 10:54 amWNW 6.2 9.8----1020.1- 17.7 15.5 10.4---
2024-06-19 10:48 am W 7.7 10.8----1020.1- 17.5 15.5 10.5---
2024-06-19 10:42 am W 4.6 7.2----1020.0- 17.5 15.5 10.8---
2024-06-19 10:36 am W 2.6 9.8----1019.9- 17.6 15.5 10.7---
2024-06-19 10:30 amWNW 4.1 9.8----1019.8- 17.6 15.4 10.7---
2024-06-19 10:24 amWNW 4.1 8.8----1019.7- 17.3 15.4 10.7---
2024-06-19 10:18 amWNW 6.2 9.8----1019.7- 17.2 15.4 10.5---
2024-06-19 10:12 am W 4.1 10.3----1019.6- 17.2 15.4 10.9---
2024-06-19 10:06 am W 6.2 9.8----1019.4- 17.3 15.4 10.6---
2024-06-19 10:00 amWNW 5.7 12.4----1019.4 +4.6 17.4 15.4 10.7---
2024-06-19 09:54 amWNW 3.6 7.7----1019.1- 17.3 15.4 11.1---
2024-06-19 09:48 amWNW 4.6 8.2----1018.9- 17.3 15.4 11.3---
2024-06-19 09:42 am W 6.7 9.8----1018.8- 17.1 15.4 11.5---
2024-06-19 09:36 am W 5.7 9.8----1018.6- 17.1 15.4 11.5---
2024-06-19 09:30 am W 6.2 8.2----1018.4- 17.0 15.4 11.8---
2024-06-19 09:24 amWNW 5.7 9.3----1018.4- 16.8 15.4 12.1---
2024-06-19 09:18 am W 5.1 9.3----1018.3- 16.9 15.4 12.3---
2024-06-19 09:12 am W 6.7 9.8----1018.1- 16.9 15.4 12.1---
2024-06-19 09:06 am W 6.7 8.8----1017.9- 17.0 15.4 12.4---
2024-06-19 09:00 am W 5.1 8.8----1017.8 +5.1 17.1 15.4 12.6---
2024-06-19 08:54 am W 7.7 11.8----1017.6- 17.1 15.4 12.4---
2024-06-19 08:48 am W 8.2 10.3----1017.5- 17.4 15.4 12.6---
2024-06-19 08:42 amWSW 5.7 7.2----1017.2- 17.5 15.4 12.9---
2024-06-19 08:36 amWSW 3.1 7.7----1017.0- 17.5 15.4 13.3---
2024-06-19 08:30 amWSW 5.1 8.2----1016.9- 17.4 15.4 13.3---
2024-06-19 08:24 am W 4.6 8.2----1016.8- 17.4 15.4 13.5---
2024-06-19 08:18 amWSW 6.7 9.3----1016.8- 17.3 15.4 13.6---
2024-06-19 08:12 amWSW 5.1 7.7----1016.7- 17.3 15.4 13.7---
2024-06-19 08:06 am W 5.1 8.2----1016.5- 17.3 15.4 13.9---
2024-06-19 08:00 am W 5.7 8.8----1016.4 +5.0 17.3 15.4 14.0---
2024-06-19 07:54 amWSW 6.2 9.3----1016.4- 17.3 15.4 14.1---
2024-06-19 07:48 amWSW 5.1 7.7----1016.2- 17.4 15.4 14.2---
2024-06-19 07:42 amWSW 5.7 6.7----1016.1- 17.5 15.4 14.4---
2024-06-19 07:36 am W 6.2 10.3----1015.9- 17.5 15.4 14.3---
2024-06-19 07:30 amWSW 6.2 9.8----1015.7- 17.5 15.4 14.5---
2024-06-19 07:24 amWSW 5.1 8.2----1015.4- 17.6 15.4 14.7---
2024-06-19 07:18 amWSW 6.7 9.3----1015.2- 17.7 15.4 14.8---
2024-06-19 07:12 amWSW 4.1 7.2----1015.1- 17.7 15.4 14.8---
2024-06-19 07:06 amWSW 5.7 8.2----1014.9- 17.7 15.4 14.8---
2024-06-19 07:00 amWSW 6.2 8.2----1014.8 +4.5 17.7 15.4 14.9---
2024-06-19 06:54 amWSW 6.7 10.3----1014.5- 17.7 15.4 14.9---
2024-06-19 06:48 am W 7.2 9.3----1014.4-- 15.4----
2024-06-19 06:42 amWSW 7.2 9.8----1014.2-- 15.4----
2024-06-19 06:36 amWSW 6.2 9.8----1013.9-- 15.4----
2024-06-19 06:30 amWSW 7.2 9.3----1013.7- 17.7 15.4 15.0---
2024-06-19 06:24 amWSW 7.2 9.3----1013.5- 17.7 15.4 15.0---
2024-06-19 06:18 am W 7.2 9.3----1013.2- 17.7 15.4 15.1---
2024-06-19 06:12 am W 6.7 9.3----1013.0- 17.7 15.4 15.2---
2024-06-19 06:06 am W 7.7 9.8----1012.9- 17.8 15.4 15.6---
2024-06-19 06:00 am W 4.6 6.2----1012.7 +4.1 17.8 15.4 16.1---
2024-06-19 05:54 amWSW 5.1 6.2----1012.5- 18.0 15.4 16.3---
2024-06-19 05:48 amWSW 3.6 5.1----1012.4- 18.1 15.4 16.4---
2024-06-19 05:42 amWSW 3.1 5.1----1012.2- 18.0 15.4 16.3---
2024-06-19 05:36 amWSW 4.1 5.7----1012.1- 18.1 15.4 16.4---
2024-06-19 05:30 am SW 4.1 5.7----1012.0- 18.1 15.4 16.4---
2024-06-19 05:24 am SW 4.1 5.1----1011.8- 18.1 15.4 16.5---
2024-06-19 05:18 am SW 3.6 5.7----1011.7- 18.1 15.4 16.4---
2024-06-19 05:12 amWSW 4.1 5.7----1011.6- 18.1 15.4 16.4---
2024-06-19 05:06 amWSW 4.6 5.7----1011.5- 18.0 15.4 16.3---
2024-06-19 05:00 amWSW 4.1 6.2----1011.4 +5.0 18.1 15.4 16.4---
2024-06-19 04:54 amWSW 4.6 6.2----1011.3- 18.1 15.4 16.4---
2024-06-19 04:48 amWSW 4.6 5.7----1011.2- 18.1 15.4 16.4---
2024-06-19 04:42 amWSW 4.1 6.2----1011.1- 18.2 15.4 16.4---
2024-06-19 04:36 am SW 4.6 6.2----1010.9- 18.2 15.4 16.4---
2024-06-19 04:30 am SW 4.6 7.2----1010.8- 18.4 15.4 16.6---
2024-06-19 04:24 am SW 4.1 6.7----1010.7- 18.4 15.4 16.6---
2024-06-19 04:18 amWSW 5.1 7.2----1010.7- 18.3 15.4 16.7---
2024-06-19 04:12 amWSW 5.7 8.8----1010.5- 18.3 15.4 16.9---
2024-06-19 04:06 amWSW 6.2 9.3----1010.4- 18.4 15.4 17.4---
2024-06-19 04:00 amWSW 5.7 7.2----1010.3 +4.4 18.4 15.4 17.6---
2024-06-19 03:54 amWSW 6.2 9.8----1010.2- 18.3 15.4 17.6---
2024-06-19 03:48 am W 6.2 7.2----1010.2- 18.2 15.4 17.5---
2024-06-19 03:42 amWSW 4.6 7.2----1010.0- 18.2 15.4 17.5---
2024-06-19 03:36 amWSW 5.1 10.3----1009.9- 18.4 15.3 17.7---
2024-06-19 03:30 amWSW 7.2 9.3----1009.8- 18.5 15.3 17.8---
2024-06-19 03:24 amWSW 7.7 11.8----1009.6- 18.6 15.3 17.9---
2024-06-19 03:18 amWSW 6.2 8.2----1009.2- 18.5 15.3 17.8---
2024-06-19 03:12 amWSW 4.6 10.3----1009.0- 18.5 15.3 17.8---
2024-06-19 03:06 am W 7.2 9.8----1008.8- 18.6 15.3 17.8---
2024-06-19 03:00 amWSW 5.7 8.2----1008.6 +3.0 18.5 15.3 17.7---
2024-06-19 02:54 amWSW 5.7 9.3----1008.5- 18.5 15.3 17.7---